Time,TemperatureF,DewpointF,PressureIn,WindDirection,WindDirectionDegrees,WindSpeedMPH,WindSpeedGustMPH,Humidity,HourlyPrecipIn,Conditions,Clouds,dailyrainin,SoftwareType,DateUTC
2013-01-01 00:02:00,20.0,15.0,30.17,NNW,332,6.0,-999.0,80,-99.99,,,-99.99,,2013-01-01 06:02:00,
2013-01-01 00:12:00,20.0,15.0,30.17,NNW,332,6.0,-999.0,80,-99.99,,,-99.99,,2013-01-01 06:12:00,
2013-01-01 00:22:00,20.0,15.0,30.17,NW,314,5.0,-999.0,80,-99.99,,,-99.99,,2013-01-01 06:22:00,
2013-01-01 00:32:00,20.0,15.0,30.17,NNW,330,4.0,-999.0,80,-99.99,,,-99.99,,2013-01-01 06:32:00,
2013-01-01 00:42:00,20.0,15.0,30.17,NNW,330,4.0,-999.0,80,-99.99,,,-99.99,,2013-01-01 06:42:00,
2013-01-01 00:52:00,20.0,15.0,30.16,NNW,340,4.0,-999.0,80,-99.99,,,-99.99,,2013-01-01 06:52:00,
2013-01-01 01:02:00,20.0,14.0,30.17,NNW,337,4.0,-999.0,78,-99.99,,,-99.99,,2013-01-01 07:02:00,
2013-01-01 01:12:00,20.0,14.0,30.16,NW,324,5.0,-999.0,77,-99.99,,,-99.99,,2013-01-01 07:12:00,
2013-01-01 01:22:00,20.0,14.0,30.16,NW,324,5.0,-999.0,77,-99.99,,,-99.99,,2013-01-01 07:22:00,
2013-01-01 01:32:00,20.0,14.0,30.16,NW,324,5.0,-999.0,77,-99.99,,,-99.99,,2013-01-01 07:32:00,
2013-01-01 01:42:00,20.0,14.0,30.16,NW,324,5.0,-999.0,77,-99.99,,,-99.99,,2013-01-01 07:42:00,
2013-01-01 01:52:00,19.0,13.0,30.17,NNW,334,5.0,-999.0,77,-99.99,,,-99.99,,2013-01-01 07:52:00,
2013-01-01 02:02:00,19.0,13.0,30.18,NNW,336,4.0,-999.0,77,-99.99,,,-99.99,,2013-01-01 08:02:00,
2013-01-01 02:12:00,19.0,13.0,30.18,NNW,336,4.0,-999.0,77,-99.99,,,-99.99,,2013-01-01 08:12:00,
2013-01-01 02:22:00,19.0,13.0,30.18,NNW,333,3.0,-999.0,78,-99.99,,,-99.99,,2013-01-01 08:22:00,
2013-01-01 02:32:00,18.0,12.0,30.19,NW,324,2.0,-999.0,77,-99.99,,,-99.99,,2013-01-01 08:32:00,
2013-01-01 02:42:00,18.0,12.0,30.19,NW,324,2.0,-999.0,77,-99.99,,,-99.99,,2013-01-01 08:42:00,
2013-01-01 02:53:00,18.0,12.0,30.19,NW,315,1.0,-999.0,78,-99.99,,,-99.99,,2013-01-01 08:53:00,
2013-01-01 03:02:00,18.0,12.0,30.19,NNW,342,3.0,-999.0,77,-99.99,,,-99.99,,2013-01-01 09:02:00,
2013-01-01 03:12:00,18.0,12.0,30.19,NNW,342,3.0,-999.0,77,-99.99,,,-99.99,,2013-01-01 09:12:00,
2013-01-01 03:22:00,17.0,11.0,30.21,NW,324,1.0,-999.0,77,-99.99,,,-99.99,,2013-01-01 09:22:00,
2013-01-01 03:32:00,17.0,11.0,30.21,NW,317,2.0,-999.0,77,-99.99,,,-99.99,,2013-01-01 09:32:00,
2013-01-01 03:42:00,17.0,11.0,30.21,NW,317,2.0,-999.0,77,-99.99,,,-99.99,,2013-01-01 09:42:00,
2013-01-01 03:52:00,16.0,11.0,30.20,NW,319,2.0,-999.0,79,-99.99,,,-99.99,,2013-01-01 09:52:00,
2013-01-01 04:02:00,15.0,10.0,30.22,WNW,296,2.0,-999.0,79,-99.99,,,-99.99,,2013-01-01 10:02:00,
2013-01-01 04:12:00,15.0,10.0,30.22,WNW,296,2.0,-999.0,79,-99.99,,,-99.99,,2013-01-01 10:12:00,
2013-01-01 04:22:00,15.0,10.0,30.21,NNW,327,3.0,-999.0,80,-99.99,,,-99.99,,2013-01-01 10:22:00,
2013-01-01 04:33:00,14.0,9.0,30.20,NW,317,3.0,-999.0,81,-99.99,,,-99.99,,2013-01-01 10:33:00,
2013-01-01 04:42:00,14.0,9.0,30.20,NW,317,3.0,-999.0,81,-99.99,,,-99.99,,2013-01-01 10:42:00,
2013-01-01 04:52:00,14.0,9.0,30.20,NNW,345,4.0,-999.0,81,-99.99,,,-99.99,,2013-01-01 10:52:00,
2013-01-01 05:02:00,14.0,9.0,30.22,NNW,344,3.0,-999.0,81,-99.99,,,-99.99,,2013-01-01 11:02:00,
2013-01-01 05:12:00,14.0,9.0,30.22,NNW,344,3.0,-999.0,81,-99.99,,,-99.99,,2013-01-01 11:12:00,
2013-01-01 05:22:00,13.0,9.0,30.22,WNW,303,2.0,-999.0,82,-99.99,,,-99.99,,2013-01-01 11:22:00,
2013-01-01 05:32:00,13.0,9.0,30.23,WNW,303,1.0,-999.0,82,-99.99,,,-99.99,,2013-01-01 11:32:00,
2013-01-01 05:42:00,13.0,9.0,30.23,WNW,303,1.0,-999.0,82,-99.99,,,-99.99,,2013-01-01 11:42:00,
2013-01-01 05:53:00,13.0,9.0,30.23,NW,309,3.0,-999.0,83,-99.99,,,-99.99,,2013-01-01 11:53:00,
2013-01-01 06:02:00,13.0,9.0,30.24,NW,311,1.0,-999.0,82,-99.99,,,-99.99,,2013-01-01 12:02:00,
2013-01-01 06:12:00,13.0,9.0,30.24,NW,311,1.0,-999.0,82,-99.99,,,-99.99,,2013-01-01 12:12:00,
2013-01-01 06:22:00,13.0,9.0,30.23,WNW,298,1.0,-999.0,82,-99.99,,,-99.99,,2013-01-01 12:22:00,
2013-01-01 06:32:00,13.0,9.0,30.24,WNW,298,1.0,-999.0,82,-99.99,,,-99.99,,2013-01-01 12:32:00,
2013-01-01 06:42:00,13.0,9.0,30.24,WNW,298,1.0,-999.0,82,-99.99,,,-99.99,,2013-01-01 12:42:00,
2013-01-01 06:52:00,12.0,8.0,30.25,WNW,298,2.0,-999.0,83,-99.99,,,-99.99,,2013-01-01 12:52:00,
2013-01-01 07:02:00,11.0,7.0,30.24,NW,311,2.0,-999.0,83,-99.99,,,-99.99,,2013-01-01 13:02:00,
2013-01-01 07:12:00,11.0,7.0,30.24,NW,311,2.0,-999.0,83,-99.99,,,-99.99,,2013-01-01 13:12:00,
2013-01-01 07:22:00,11.0,7.0,30.24,WNW,297,2.0,-999.0,83,-99.99,,,-99.99,,2013-01-01 13:22:00,
2013-01-01 07:33:00,11.0,7.0,30.24,NNW,340,2.0,-999.0,83,-99.99,,,-99.99,,2013-01-01 13:33:00,
2013-01-01 07:42:00,11.0,7.0,30.24,NNW,340,2.0,-999.0,83,-99.99,,,-99.99,,2013-01-01 13:42:00,
2013-01-01 07:52:00,11.0,7.0,30.24,NNW,338,4.0,-999.0,83,-99.99,,,-99.99,,2013-01-01 13:52:00,
2013-01-01 08:02:00,11.0,7.0,30.24,NNW,338,4.0,-999.0,83,-99.99,,,-99.99,,2013-01-01 14:02:00,
2013-01-01 08:12:00,11.0,7.0,30.24,NNW,338,4.0,-999.0,83,-99.99,,,-99.99,,2013-01-01 14:12:00,
2013-01-01 08:22:00,10.0,6.0,30.25,NNW,334,2.0,-999.0,83,-99.99,,,-99.99,,2013-01-01 14:22:00,
2013-01-01 08:32:00,10.0,6.0,30.24,NNW,338,4.0,-999.0,82,-99.99,,,-99.99,,2013-01-01 14:32:00,
2013-01-01 08:43:00,10.0,6.0,30.24,NNW,338,4.0,-999.0,82,-99.99,,,-99.99,,2013-01-01 14:43:00,
2013-01-01 08:53:00,11.0,7.0,30.23,NNW,342,3.0,-999.0,82,-99.99,,,-99.99,,2013-01-01 14:53:00,
2013-01-01 09:03:00,11.0,6.0,30.22,NNW,348,5.0,-999.0,80,-99.99,,,-99.99,,2013-01-01 15:03:00,
2013-01-01 09:12:00,11.0,6.0,30.22,NNW,348,5.0,-999.0,80,-99.99,,,-99.99,,2013-01-01 15:12:00,
2013-01-01 09:22:00,12.0,7.0,30.24,NNE,13,4.0,-999.0,79,-99.99,,,-99.99,,2013-01-01 15:22:00,
2013-01-01 09:33:00,12.0,7.0,30.24,NNE,13,4.0,-999.0,79,-99.99,,,-99.99,,2013-01-01 15:33:00,
2013-01-01 09:42:00,12.0,7.0,30.24,NNE,13,4.0,-999.0,79,-99.99,,,-99.99,,2013-01-01 15:42:00,
2013-01-01 09:53:00,14.0,8.0,30.27,NNW,338,2.0,-999.0,76,-99.99,,,-99.99,,2013-01-01 15:53:00,
2013-01-01 10:02:00,14.0,8.0,30.28,NW,326,2.0,-999.0,76,-99.99,,,-99.99,,2013-01-01 16:02:00,
2013-01-01 10:12:00,14.0,8.0,30.28,NW,326,2.0,-999.0,76,-99.99,,,-99.99,,2013-01-01 16:12:00,
2013-01-01 10:22:00,15.0,9.0,30.29,NNW,327,2.0,-999.0,75,-99.99,,,-99.99,,2013-01-01 16:22:00,
2013-01-01 10:33:00,16.0,9.0,30.29,NW,316,1.0,-999.0,74,-99.99,,,-99.99,,2013-01-01 16:33:00,
2013-01-01 10:42:00,16.0,9.0,30.29,NW,316,1.0,-999.0,74,-99.99,,,-99.99,,2013-01-01 16:42:00,
2013-01-01 10:53:00,16.0,9.0,30.29,WNW,284,2.0,-999.0,73,-99.99,,,-99.99,,2013-01-01 16:53:00,
2013-01-01 11:02:00,17.0,10.0,30.30,West,279,2.0,-999.0,72,-99.99,,,-99.99,,2013-01-01 17:02:00,
2013-01-01 11:12:00,17.0,10.0,30.30,West,279,2.0,-999.0,72,-99.99,,,-99.99,,2013-01-01 17:12:00,
2013-01-01 11:22:00,17.0,9.0,30.29,WNW,293,2.0,-999.0,71,-99.99,,,-99.99,,2013-01-01 17:22:00,
2013-01-01 11:33:00,18.0,10.0,30.29,WNW,289,2.0,-999.0,70,-99.99,,,-99.99,,2013-01-01 17:33:00,
2013-01-01 11:43:00,18.0,10.0,30.29,WNW,289,2.0,-999.0,70,-99.99,,,-99.99,,2013-01-01 17:43:00,
2013-01-01 11:53:00,18.0,10.0,30.29,WNW,289,2.0,-999.0,70,-99.99,,,-99.99,,2013-01-01 17:53:00,
2013-01-01 12:03:00,18.0,10.0,30.28,West,265,4.0,-999.0,70,-99.99,,,-99.99,,2013-01-01 18:03:00,
2013-01-01 12:12:00,18.0,10.0,30.28,West,265,4.0,-999.0,70,-99.99,,,-99.99,,2013-01-01 18:12:00,
2013-01-01 12:22:00,18.0,10.0,30.27,WSW,253,4.0,-999.0,70,-99.99,,,-99.99,,2013-01-01 18:22:00,
2013-01-01 12:33:00,19.0,11.0,30.27,West,280,5.0,-999.0,69,-99.99,,,-99.99,,2013-01-01 18:33:00,
2013-01-01 12:42:00,19.0,11.0,30.27,West,280,5.0,-999.0,69,-99.99,,,-99.99,,2013-01-01 18:42:00,
2013-01-01 12:53:00,19.0,11.0,30.27,West,280,5.0,-999.0,69,-99.99,,,-99.99,,2013-01-01 18:53:00,
2013-01-01 13:02:00,19.0,11.0,30.24,WNW,294,6.0,-999.0,71,-99.99,,,-99.99,,2013-01-01 19:02:00,
2013-01-01 13:12:00,19.0,11.0,30.24,WNW,294,6.0,-999.0,71,-99.99,,,-99.99,,2013-01-01 19:12:00,
2013-01-01 13:22:00,19.0,11.0,30.24,WNW,284,4.0,-999.0,69,-99.99,,,-99.99,,2013-01-01 19:22:00,
2013-01-01 13:32:00,19.0,10.0,30.23,NW,312,6.0,-999.0,68,-99.99,,,-99.99,,2013-01-01 19:32:00,
2013-01-01 13:42:00,19.0,10.0,30.23,NW,312,6.0,-999.0,68,-99.99,,,-99.99,,2013-01-01 19:42:00,
2013-01-01 13:53:00,19.0,10.0,30.23,WNW,282,5.0,-999.0,68,-99.99,,,-99.99,,2013-01-01 19:53:00,
2013-01-01 14:02:00,20.0,11.0,30.23,NW,323,5.0,-999.0,69,-99.99,,,-99.99,,2013-01-01 20:02:00,
2013-01-01 14:12:00,20.0,11.0,30.23,NW,323,5.0,-999.0,69,-99.99,,,-99.99,,2013-01-01 20:12:00,
2013-01-01 14:23:00,20.0,11.0,30.23,NW,306,6.0,-999.0,69,-99.99,,,-99.99,,2013-01-01 20:23:00,
2013-01-01 14:32:00,19.0,11.0,30.22,NW,323,7.0,-999.0,69,-99.99,,,-99.99,,2013-01-01 20:32:00,
2013-01-01 14:42:00,19.0,11.0,30.22,NW,323,7.0,-999.0,69,-99.99,,,-99.99,,2013-01-01 20:42:00,
2013-01-01 14:53:00,19.0,11.0,30.22,WNW,303,8.0,-999.0,69,-99.99,,,-99.99,,2013-01-01 20:53:00,
2013-01-01 15:03:00,19.0,11.0,30.22,NW,311,8.0,-999.0,71,-99.99,,,-99.99,,2013-01-01 21:03:00,
2013-01-01 15:12:00,19.0,11.0,30.22,NW,311,8.0,-999.0,71,-99.99,,,-99.99,,2013-01-01 21:12:00,
2013-01-01 15:22:00,18.0,10.0,30.23,NW,311,8.0,-999.0,71,-99.99,,,-99.99,,2013-01-01 21:22:00,
2013-01-01 15:33:00,18.0,10.0,30.23,West,277,6.0,-999.0,70,-99.99,,,-99.99,,2013-01-01 21:33:00,
2013-01-01 15:42:00,18.0,10.0,30.23,West,277,6.0,-999.0,70,-99.99,,,-99.99,,2013-01-01 21:42:00,
2013-01-01 15:53:00,18.0,10.0,30.24,WNW,296,6.0,-999.0,70,-99.99,,,-99.99,,2013-01-01 21:53:00,
2013-01-01 16:02:00,18.0,10.0,30.24,WNW,285,5.0,-999.0,69,-99.99,,,-99.99,,2013-01-01 22:02:00,
2013-01-01 16:12:00,18.0,10.0,30.24,WNW,285,5.0,-999.0,69,-99.99,,,-99.99,,2013-01-01 22:12:00,
2013-01-01 16:22:00,18.0,9.0,30.24,WNW,296,6.0,-999.0,68,-99.99,,,-99.99,,2013-01-01 22:22:00,
2013-01-01 16:33:00,18.0,9.0,30.24,WNW,296,6.0,-999.0,68,-99.99,,,-99.99,,2013-01-01 22:33:00,
2013-01-01 16:42:00,18.0,9.0,30.24,WNW,296,6.0,-999.0,68,-99.99,,,-99.99,,2013-01-01 22:42:00,
2013-01-01 16:52:00,17.0,9.0,30.23,West,267,4.0,-999.0,69,-99.99,,,-99.99,,2013-01-01 22:52:00,
2013-01-01 17:02:00,16.0,9.0,30.24,West,270,3.0,-999.0,72,-99.99,,,-99.99,,2013-01-01 23:02:00,
2013-01-01 17:12:00,16.0,9.0,30.24,West,270,3.0,-999.0,72,-99.99,,,-99.99,,2013-01-01 23:12:00,
2013-01-01 17:22:00,16.0,9.0,30.24,WNW,284,4.0,-999.0,74,-99.99,,,-99.99,,2013-01-01 23:22:00,
2013-01-01 17:32:00,15.0,9.0,30.25,WNW,286,4.0,-999.0,75,-99.99,,,-99.99,,2013-01-01 23:32:00,
2013-01-01 17:42:00,15.0,9.0,30.25,WNW,286,4.0,-999.0,75,-99.99,,,-99.99,,2013-01-01 23:42:00,
2013-01-01 17:53:00,15.0,9.0,30.25,WNW,292,4.0,-999.0,75,-99.99,,,-99.99,,2013-01-01 23:53:00,
2013-01-01 18:02:00,14.0,8.0,30.25,West,271,2.0,-999.0,76,-99.99,,,-99.99,,2013-01-02 00:02:00,
2013-01-01 18:12:00,14.0,8.0,30.25,West,271,2.0,-999.0,76,-99.99,,,-99.99,,2013-01-02 00:12:00,
2013-01-01 18:22:00,14.0,8.0,30.25,West,271,0.0,-999.0,77,-99.99,,,-99.99,,2013-01-02 00:22:00,
2013-01-01 18:32:00,14.0,8.0,30.26,West,280,2.0,-999.0,77,-99.99,,,-99.99,,2013-01-02 00:32:00,
2013-01-01 18:42:00,14.0,8.0,30.26,West,280,2.0,-999.0,77,-99.99,,,-99.99,,2013-01-02 00:42:00,
2013-01-01 18:53:00,13.0,7.0,30.25,WNW,286,1.0,-999.0,76,-99.99,,,-99.99,,2013-01-02 00:53:00,
2013-01-01 19:02:00,13.0,7.0,30.25,WNW,286,1.0,-999.0,77,-99.99,,,-99.99,,2013-01-02 01:02:00,
2013-01-01 19:12:00,13.0,7.0,30.25,WNW,286,1.0,-999.0,77,-99.99,,,-99.99,,2013-01-02 01:12:00,
2013-01-01 19:22:00,12.0,6.0,30.26,WNW,286,0.0,-999.0,78,-99.99,,,-99.99,,2013-01-02 01:22:00,
2013-01-01 19:32:00,11.0,7.0,30.26,WNW,286,0.0,-999.0,82,-99.99,,,-99.99,,2013-01-02 01:32:00,
2013-01-01 19:42:00,11.0,7.0,30.26,WNW,286,0.0,-999.0,82,-99.99,,,-99.99,,2013-01-02 01:42:00,
2013-01-01 19:52:00,11.0,7.0,30.26,WNW,286,0.0,-999.0,82,-99.99,,,-99.99,,2013-01-02 01:52:00,
2013-01-01 20:02:00,11.0,7.0,30.25,West,275,2.0,-999.0,82,-99.99,,,-99.99,,2013-01-02 02:02:00,
2013-01-01 20:12:00,11.0,7.0,30.25,West,275,2.0,-999.0,82,-99.99,,,-99.99,,2013-01-02 02:12:00,
2013-01-01 20:22:00,11.0,7.0,30.26,West,275,1.0,-999.0,82,-99.99,,,-99.99,,2013-01-02 02:22:00,
2013-01-01 20:32:00,11.0,6.0,30.25,West,275,1.0,-999.0,81,-99.99,,,-99.99,,2013-01-02 02:32:00,
2013-01-01 20:42:00,11.0,6.0,30.25,West,275,1.0,-999.0,81,-99.99,,,-99.99,,2013-01-02 02:42:00,
2013-01-01 20:53:00,10.0,5.0,30.25,West,275,1.0,-999.0,81,-99.99,,,-99.99,,2013-01-02 02:53:00,
2013-01-01 21:02:00,10.0,5.0,30.24,West,275,0.0,-999.0,81,-99.99,,,-99.99,,2013-01-02 03:02:00,
2013-01-01 21:12:00,10.0,5.0,30.24,West,275,0.0,-999.0,81,-99.99,,,-99.99,,2013-01-02 03:12:00,
2013-01-01 21:22:00,10.0,6.0,30.24,West,275,0.0,-999.0,82,-99.99,,,-99.99,,2013-01-02 03:22:00,
2013-01-01 21:32:00,9.0,5.0,30.25,West,275,0.0,-999.0,82,-99.99,,,-99.99,,2013-01-02 03:32:00,
2013-01-01 21:42:00,9.0,5.0,30.25,West,275,0.0,-999.0,82,-99.99,,,-99.99,,2013-01-02 03:42:00,
2013-01-01 21:53:00,9.0,5.0,30.24,West,275,0.0,-999.0,83,-99.99,,,-99.99,,2013-01-02 03:53:00,
2013-01-01 22:02:00,9.0,5.0,30.24,West,275,0.0,-999.0,83,-99.99,,,-99.99,,2013-01-02 04:02:00,
2013-01-01 22:12:00,9.0,5.0,30.24,West,275,0.0,-999.0,83,-99.99,,,-99.99,,2013-01-02 04:12:00,
2013-01-01 22:22:00,9.0,5.0,30.24,West,275,0.0,-999.0,83,-99.99,,,-99.99,,2013-01-02 04:22:00,
2013-01-01 22:32:00,9.0,5.0,30.25,West,275,1.0,-999.0,82,-99.99,,,-99.99,,2013-01-02 04:32:00,
2013-01-01 22:42:00,9.0,5.0,30.25,West,275,1.0,-999.0,82,-99.99,,,-99.99,,2013-01-02 04:42:00,
2013-01-01 22:52:00,9.0,5.0,30.25,West,275,0.0,-999.0,83,-99.99,,,-99.99,,2013-01-02 04:52:00,
2013-01-01 23:03:00,8.0,4.0,30.26,West,275,1.0,-999.0,84,-99.99,,,-99.99,,2013-01-02 05:03:00,
2013-01-01 23:12:00,8.0,4.0,30.26,West,275,1.0,-999.0,84,-99.99,,,-99.99,,2013-01-02 05:12:00,
2013-01-01 23:22:00,9.0,5.0,30.27,West,275,0.0,-999.0,85,-99.99,,,-99.99,,2013-01-02 05:22:00,
2013-01-01 23:33:00,9.0,5.0,30.27,West,275,2.0,-999.0,84,-99.99,,,-99.99,,2013-01-02 05:33:00,
2013-01-01 23:42:00,9.0,5.0,30.27,West,275,2.0,-999.0,84,-99.99,,,-99.99,,2013-01-02 05:42:00,
2013-01-01 23:53:00,9.0,5.0,30.26,West,275,2.0,-999.0,83,-99.99,,,-99.99,,2013-01-02 05:53:00,